TimeEET,TemperatureF,Dew PointF,Humidity,Sea Level PressureIn,VisibilityMPH,Wind Direction,Wind SpeedMPH,Gust SpeedMPH,PrecipitationIn,Events,Conditions,WindDirDegrees,DateUTC
12:20 AM,59.0,55.4,88,29.98,6.2,NNE,15.0,-,N/A,Rain,Light Rain,20,2012-11-07 22:20:00
1:50 AM,59.0,51.8,77,29.95,6.2,North,10.4,-,N/A,,Scattered Clouds,350,2012-11-07 23:50:00
2:20 AM,59.0,50.0,72,29.95,6.2,North,6.9,-,N/A,,Mostly Cloudy,350,2012-11-08 00:20:00
2:50 AM,60.8,51.8,72,29.95,6.2,NNW,13.8,-,N/A,,Mostly Cloudy,340,2012-11-08 00:50:00
3:20 AM,59.0,51.8,77,29.98,6.2,North,11.5,-,N/A,,Drizzle,350,2012-11-08 01:20:00
3:50 AM,57.2,51.8,82,29.98,6.2,NNW,6.9,-,N/A,,Drizzle,330,2012-11-08 01:50:00
4:20 AM,57.2,51.8,82,29.98,5.6,NNE,25.3,38.0,N/A,Rain,Light Rain,20,2012-11-08 02:20:00
5:20 AM,57.2,50.0,77,30.01,6.2,North,20.7,-,N/A,,Mostly Cloudy,360,2012-11-08 03:20:00
5:50 AM,57.2,50.0,77,30.01,6.2,North,17.3,-,N/A,,Mostly Cloudy,360,2012-11-08 03:50:00
6:20 AM,57.2,50.0,77,30.04,6.2,North,25.3,-,N/A,,Mostly Cloudy,10,2012-11-08 04:20:00
6:50 AM,57.2,48.2,72,30.04,6.2,North,27.6,-,N/A,,Mostly Cloudy,10,2012-11-08 04:50:00
7:20 AM,57.2,46.4,67,30.04,6.2,North,18.4,-,N/A,,Mostly Cloudy,360,2012-11-08 05:20:00
7:50 AM,57.2,48.2,72,30.06,6.2,North,18.4,-,N/A,,Mostly Cloudy,360,2012-11-08 05:50:00
8:20 AM,55.4,48.2,77,30.06,6.2,North,21.9,34.5,N/A,Rain,Light Rain,360,2012-11-08 06:20:00
8:50 AM,55.4,50.0,82,30.06,5.0,North,19.6,31.1,N/A,Rain,Light Rain,360,2012-11-08 06:50:00
9:20 AM,55.4,50.0,82,30.09,5.6,North,17.3,29.9,N/A,Rain,Light Rain,360,2012-11-08 07:20:00
9:50 AM,55.4,48.2,77,30.09,6.2,North,13.8,-,N/A,,Mostly Cloudy,350,2012-11-08 07:50:00
10:20 AM,57.2,48.2,72,30.09,6.2,North,15.0,-,N/A,,Mostly Cloudy,360,2012-11-08 08:20:00
10:50 AM,57.2,48.2,72,30.09,6.2,North,19.6,-,N/A,,Mostly Cloudy,360,2012-11-08 08:50:00
11:20 AM,57.2,48.2,72,30.09,6.2,North,19.6,35.7,N/A,,Mostly Cloudy,360,2012-11-08 09:20:00
11:50 AM,59.0,46.4,63,30.09,6.2,North,18.4,-,N/A,,Mostly Cloudy,360,2012-11-08 09:50:00
12:20 PM,59.0,44.6,59,30.09,6.2,North,20.7,32.2,N/A,,Mostly Cloudy,10,2012-11-08 10:20:00
12:50 PM,59.0,42.8,55,30.09,6.2,North,17.3,29.9,N/A,,Mostly Cloudy,10,2012-11-08 10:50:00
1:20 PM,60.8,41.0,48,30.09,6.2,North,18.4,32.2,N/A,,Scattered Clouds,360,2012-11-08 11:20:00
1:50 PM,60.8,42.8,52,30.09,6.2,North,18.4,-,N/A,,Mostly Cloudy,360,2012-11-08 11:50:00
2:20 PM,59.0,39.2,48,30.06,6.2,NNW,16.1,-,N/A,,Scattered Clouds,340,2012-11-08 12:20:00
2:50 PM,59.0,44.6,59,30.09,6.2,North,19.6,-,N/A,,Mostly Cloudy,360,2012-11-08 12:50:00
3:20 PM,59.0,42.8,55,30.09,6.2,North,18.4,-,N/A,,Mostly Cloudy,10,2012-11-08 13:20:00
3:50 PM,59.0,41.0,51,30.09,6.2,NNE,19.6,-,N/A,,Scattered Clouds,20,2012-11-08 13:50:00
4:20 PM,59.0,39.2,48,30.09,6.2,NNE,20.7,-,N/A,,Scattered Clouds,20,2012-11-08 14:20:00
4:50 PM,59.0,41.0,51,30.09,6.2,North,17.3,-,N/A,,Scattered Clouds,10,2012-11-08 14:50:00
5:20 PM,57.2,44.6,63,30.09,6.2,North,11.5,-,N/A,,Scattered Clouds,360,2012-11-08 15:20:00
5:50 PM,57.2,42.8,59,30.12,6.2,North,11.5,-,N/A,,Partly Cloudy,360,2012-11-08 15:50:00
6:20 PM,57.2,42.8,59,30.12,6.2,NNW,4.6,-,N/A,,Scattered Clouds,330,2012-11-08 16:20:00
6:50 PM,57.2,42.8,59,30.12,6.2,NW,5.8,-,N/A,,Scattered Clouds,310,2012-11-08 16:50:00
7:20 PM,55.4,42.8,63,30.12,6.2,Variable,3.5,-,N/A,,Scattered Clouds,0,2012-11-08 17:20:00
7:50 PM,55.4,41.0,58,30.12,6.2,NW,6.9,-,N/A,,Partly Cloudy,320,2012-11-08 17:50:00
8:20 PM,55.4,41.0,58,30.12,6.2,NW,9.2,-,N/A,,Partly Cloudy,310,2012-11-08 18:20:00
8:50 PM,57.2,41.0,55,30.12,6.2,WNW,8.1,-,N/A,,Partly Cloudy,290,2012-11-08 18:50:00
9:20 PM,55.4,39.2,54,30.12,6.2,NW,9.2,-,N/A,,Partly Cloudy,310,2012-11-08 19:20:00
9:50 PM,55.4,39.2,54,30.12,6.2,WNW,13.8,-,N/A,,Partly Cloudy,300,2012-11-08 19:50:00
10:20 PM,55.4,39.2,54,30.12,6.2,WNW,10.4,-,N/A,,Partly Cloudy,290,2012-11-08 20:20:00
10:50 PM,55.4,39.2,54,30.12,6.2,WNW,9.2,-,N/A,,Partly Cloudy,290,2012-11-08 20:50:00
11:20 PM,55.4,39.2,54,30.12,6.2,WNW,11.5,-,N/A,,Partly Cloudy,300,2012-11-08 21:20:00
11:50 PM,57.2,39.2,51,30.12,6.2,NW,11.5,-,N/A,,Partly Cloudy,310,2012-11-08 21:50:00